Weather History for New Richmond, WI

Change the Weather History Date:

Wednesday, February 5, 2014

  Actual Average (KMSP) Record (KMSP)
Temperature  
Mean Temperature -2 °F 18 °F  
Max Temperature 3 °F 26 °F 51 °F (2005)
Min Temperature -7 °F 10 °F -27 °F (1979)
Degree Days  
Heating Degree Days 66 47  
Month to date heating degree days 239  
Since 1 July heating degree days 4793  
Cooling Degree Days 0 0  
Month to date cooling degree days 0  
Year to date cooling degree days 0  
Moisture  
Dew Point -9 °F    
Average Humidity 71    
Maximum Humidity 82    
Minimum Humidity 66    
Precipitation  
Precipitation 0.00 in 0.02 in 0.52 in (1908)
Month to date precipitation 0.12  
Year to date precipitation 1.02  
Snow  
Snow 0.00 in 0.30 in 7.50 in (1908)
Month to date snowfall 1.5  
Since 1 July snowfall 35.5  
Snow Depth -    
Sea Level Pressure  
Sea Level Pressure 30.45 in    
Wind  
Wind Speed 11 mph (NW)    
Max Wind Speed 13 mph    
Max Gust Speed 17 mph    
Visibility 9 miles    
Events Snow    
T = Trace of Precipitation, MM = Missing Value Source: NWS Daily Summary

Daily Weather History Graph

Daily Weather History Graph

Search for Another Location

Airport:

Trip Planner

Search our weather history database for the weather conditions in past years. The results will help you decide how hot, cold, wet, or windy it might be!

Date:

Astronomy

Feb. 05, 2014 Rise Set
Actual Time 7:25 AM CST 5:23 PM CST
Civil Twilight 6:54 AM CST 5:54 PM CST
Nautical Twilight 6:19 AM CST 6:29 PM CST
Astronomical Twilight 5:45 AM CST 7:03 PM CST
Moon 10:20 AM CST (2/5) No Moon Set
Length of Visible Light 11h 00m
Length of Day
9h 58m
Waxing Crescent, 39% of the Moon is Illuminated
Feb 5
Waxing Crescent
Feb 6
First Quarter
Feb 14
Full
Feb 22
Last Quarter
Mar 1
New

Hourly Weather History & Observations

Time (CST) Temp. Windchill Dew Point Humidity Pressure Visibility Wind Dir Wind Speed Gust Speed Precip Events Conditions
12:15 AM -0.4 °F -18.4 °F -8.5 °F 69% 30.41 in 10.0 mi North 12.7 mph - N/A   Clear
12:35 AM -0.8 °F -18.9 °F -8.9 °F 69% 30.42 in 10.0 mi North 12.7 mph - N/A   Clear
12:55 AM -0.8 °F -18.9 °F -8.9 °F 69% 30.42 in 10.0 mi North 12.7 mph - N/A   Mostly Cloudy
1:15 AM -0.8 °F -18.9 °F -9.4 °F 67% 30.42 in 10.0 mi North 12.7 mph - N/A   Overcast
1:35 AM -0.8 °F -18.9 °F -9.4 °F 67% 30.42 in 10.0 mi NNW 12.7 mph - N/A   Overcast
1:55 AM -0.9 °F -19.1 °F -9.4 °F 67% 30.43 in 10.0 mi NNW 12.7 mph - N/A   Overcast
2:15 AM -1.3 °F -17.8 °F -9.6 °F 68% 30.43 in 10.0 mi NNW 10.4 mph - N/A   Overcast
2:35 AM -1.3 °F -18.7 °F -9.6 °F 68% 30.43 in 10.0 mi NNW 11.5 mph - N/A   Overcast
2:55 AM -1.3 °F -19.6 °F -9.6 °F 68% 30.43 in 10.0 mi NNW 12.7 mph - N/A   Overcast
3:15 AM -1.3 °F -18.7 °F -9.8 °F 67% 30.43 in 10.0 mi NNW 11.5 mph 17.3 mph N/A   Overcast
3:35 AM -1.3 °F -17.8 °F -9.9 °F 67% 30.42 in 10.0 mi NNW 10.4 mph - N/A   Overcast
3:55 AM -1.3 °F -17.8 °F -9.9 °F 67% 30.43 in 10.0 mi NNW 10.4 mph - N/A   Overcast
4:15 AM -1.5 °F -19.0 °F -9.9 °F 67% 30.43 in 10.0 mi NNW 11.5 mph - N/A   Overcast
4:35 AM -1.5 °F -19.8 °F -10.1 °F 67% 30.43 in 10.0 mi NNW 12.7 mph - N/A   Overcast
4:55 AM -1.7 °F -18.3 °F -10.3 °F 67% 30.43 in 10.0 mi NNW 10.4 mph - N/A   Overcast
5:15 AM -2.2 °F -19.9 °F -10.5 °F 68% 30.43 in 10.0 mi NNW 11.5 mph 17.3 mph N/A   Overcast
5:35 AM -2.2 °F -20.7 °F -10.7 °F 67% 30.43 in 10.0 mi NNW 12.7 mph - N/A   Overcast
5:55 AM -2.4 °F -20.1 °F -11.0 °F 67% 30.43 in 10.0 mi NNW 11.5 mph - N/A   Overcast
6:15 AM -2.6 °F -20.3 °F -10.8 °F 68% 30.43 in 10.0 mi NNW 11.5 mph - N/A   Overcast
6:35 AM -2.6 °F -21.1 °F -10.7 °F 68% 30.43 in 10.0 mi NNW 12.7 mph - N/A   Overcast
6:55 AM -2.7 °F -20.5 °F -10.5 °F 70% 30.44 in 10.0 mi NNW 11.5 mph - N/A   Overcast
7:15 AM -3.1 °F -21.0 °F -10.7 °F 70% 30.44 in 10.0 mi NNW 11.5 mph - N/A   Overcast
7:35 AM -3.1 °F -20.1 °F -10.3 °F 71% 30.44 in 10.0 mi NNW 10.4 mph - N/A   Overcast
7:55 AM -3.1 °F -21.0 °F -10.3 °F 71% 30.45 in 10.0 mi NNW 11.5 mph - N/A   Overcast
8:15 AM -2.7 °F -19.6 °F -10.3 °F 70% 30.45 in 10.0 mi NNW 10.4 mph - N/A   Overcast
8:35 AM -2.7 °F -18.6 °F -10.3 °F 70% 30.46 in 10.0 mi NNW 9.2 mph - N/A   Overcast
8:55 AM -2.6 °F -19.4 °F -10.3 °F 70% 30.46 in 7.0 mi NNW 10.4 mph - N/A   Overcast
9:15 AM -2.6 °F -21.1 °F -9.8 °F 71% 30.46 in 4.0 mi NNW 12.7 mph - N/A   Haze
9:35 AM -2.4 °F -18.2 °F -9.6 °F 71% 30.46 in 4.0 mi NNW 9.2 mph - N/A   Haze
9:55 AM -2.2 °F -18.9 °F -9.6 °F 71% 30.47 in 5.0 mi NW 10.4 mph - N/A   Haze
10:15 AM -1.5 °F -16.0 °F -8.9 °F 71% 30.47 in 7.0 mi NW 8.1 mph - N/A   Overcast
10:35 AM -1.5 °F -18.1 °F -9.4 °F 69% 30.48 in 7.0 mi NW 10.4 mph - N/A   Overcast
10:55 AM -0.8 °F -16.2 °F -8.7 °F 69% 30.48 in 10.0 mi NW 9.2 mph - N/A   Overcast
11:15 AM -0.6 °F -17.8 °F -8.7 °F 69% 30.48 in 7.0 mi NW 11.5 mph - N/A   Overcast
11:35 AM -0.4 °F -14.7 °F -8.5 °F 69% 30.47 in 10.0 mi NW 8.1 mph - N/A   Overcast
11:55 AM 0.1 °F -15.1 °F -8.1 °F 68% 30.47 in 10.0 mi NW 9.2 mph - N/A   Overcast
12:15 PM 0.3 °F -15.8 °F -8.1 °F 68% 30.46 in 10.0 mi NW 10.4 mph - N/A   Overcast
12:35 PM 0.9 °F -14.2 °F -7.8 °F 67% 30.46 in 10.0 mi NW 9.2 mph - N/A   Overcast
12:55 PM 1.0 °F -14.0 °F -7.8 °F 66% 30.46 in 10.0 mi NW 9.2 mph - N/A   Overcast
1:15 PM 1.4 °F -13.5 °F -7.4 °F 67% 30.46 in 10.0 mi NW 9.2 mph - N/A   Overcast
1:35 PM 1.8 °F -14.9 °F -7.2 °F 66% 30.45 in 10.0 mi WNW 11.5 mph - N/A   Overcast
1:55 PM 1.9 °F -13.8 °F -6.9 °F 67% 30.45 in 10.0 mi NW 10.4 mph - N/A   Overcast
2:15 PM 2.1 °F -14.4 °F -6.9 °F 66% 30.45 in 10.0 mi NW 11.5 mph - N/A   Overcast
2:35 PM 2.3 °F -13.4 °F -6.9 °F 66% 30.45 in 10.0 mi NW 10.4 mph - N/A   Overcast
2:55 PM 2.8 °F -10.7 °F -6.3 °F 66% 30.45 in 10.0 mi NW 8.1 mph - N/A   Overcast
3:15 PM 3.2 °F -12.2 °F -5.4 °F 67% 30.45 in 4.0 mi NW 10.4 mph - N/A Snow Light Snow
3:35 PM 2.8 °F -12.7 °F -6.0 °F 67% 30.46 in 4.0 mi WNW 10.4 mph - N/A   Haze
3:55 PM 2.1 °F -13.6 °F -6.0 °F 69% 30.46 in 4.0 mi WNW 10.4 mph - N/A Snow Light Snow
4:15 PM 2.3 °F -10.2 °F -5.8 °F 69% 30.45 in 7.0 mi NW 6.9 mph - N/A   Overcast
4:35 PM 1.9 °F -13.8 °F -5.8 °F 70% 30.45 in 10.0 mi NW 10.4 mph - N/A   Mostly Cloudy
4:55 PM 1.4 °F -15.3 °F -6.5 °F 69% 30.46 in 10.0 mi WNW 11.5 mph - N/A   Mostly Cloudy
5:15 PM 1.0 °F -12.9 °F -6.9 °F 69% 30.46 in 10.0 mi WNW 8.1 mph - N/A   Overcast
5:35 PM 0.5 °F -13.6 °F -6.7 °F 72% 30.46 in 10.0 mi WNW 8.1 mph - N/A Snow Light Snow
5:55 PM 0.3 °F -9.5 °F -6.7 °F 72% 30.46 in 10.0 mi West 4.6 mph - N/A   Overcast
6:15 PM -1.3 °F -11.4 °F -7.1 °F 77% 30.47 in 10.0 mi West 4.6 mph - N/A   Scattered Clouds
6:35 PM -2.4 °F -12.7 °F -7.8 °F 78% 30.46 in 10.0 mi West 4.6 mph - N/A   Scattered Clouds
6:55 PM -2.4 °F -14.4 °F -7.6 °F 78% 30.46 in 10.0 mi West 5.8 mph - N/A Snow Light Snow
7:15 PM -2.2 °F -12.5 °F -6.9 °F 80% 30.46 in 10.0 mi West 4.6 mph - N/A Snow Light Snow
7:35 PM -2.4 °F -14.4 °F -6.9 °F 81% 30.46 in 7.0 mi West 5.8 mph - N/A Snow Light Snow
7:55 PM -2.0 °F -13.9 °F -6.5 °F 81% 30.46 in 10.0 mi West 5.8 mph - N/A Snow Light Snow
8:15 PM -2.2 °F -14.2 °F -6.7 °F 81% 30.46 in 10.0 mi West 5.8 mph - N/A Snow Light Snow
8:35 PM -2.6 °F -14.6 °F -6.9 °F 82% 30.46 in 10.0 mi West 5.8 mph - N/A Snow Light Snow
8:55 PM -2.2 °F -16.8 °F -6.5 °F 82% 30.45 in 5.0 mi West 8.1 mph - N/A Snow Light Snow
9:15 PM -2.2 °F -15.6 °F -6.7 °F 81% 30.45 in 10.0 mi West 6.9 mph - N/A   Overcast
9:35 PM -2.6 °F -17.3 °F -6.9 °F 82% 30.45 in 5.0 mi West 8.1 mph - N/A   Overcast
9:55 PM -2.9 °F -17.7 °F -7.8 °F 80% 30.45 in 7.0 mi West 8.1 mph - N/A   Overcast
10:15 PM -3.8 °F -19.9 °F -8.7 °F 80% 30.44 in 10.0 mi West 9.2 mph - N/A   Scattered Clouds
10:35 PM -4.9 °F -21.3 °F -9.4 °F 81% 30.44 in 10.0 mi West 9.2 mph - N/A   Clear
10:55 PM -5.4 °F -20.8 °F -9.9 °F 81% 30.43 in 10.0 mi West 8.1 mph - N/A   Clear
11:15 PM -5.8 °F -19.9 °F -10.3 °F 81% 30.43 in 10.0 mi West 6.9 mph - N/A   Clear
11:35 PM -6.9 °F -21.2 °F -11.4 °F 81% 30.42 in 10.0 mi WNW 6.9 mph - N/A   Clear
11:55 PM -7.2 °F -18.3 °F -11.7 °F 81% 30.42 in 10.0 mi West 4.6 mph - N/A   Clear